{"data":{"norad_id":58135,"intl_designator":"2023-162T","name":"STARLINK-30772","alt_names":[],"object_type":"PAYLOAD","status":"ACTIVE","operator":null,"country":"US","launch_date":"2023-10-22","launch_site_code":"AFETR","launch_vehicle":null,"mission":null,"orbit_class":"UNKNOWN","rcs_meters":null,"size_class":null,"mass_kg":null,"dimensions":null,"purposes":["comms"],"wikipedia_slug":null,"has_3d_model":false,"image_url":null,"decayed_at":null,"tle_current":{"epoch":"2026-05-25T03:54:54.807840Z","epoch_age_seconds":57137,"freshness":"FRESH","line1":"1 58135U 23162T   26145.16313435  .00002158  00000+0  87961-4 0  9990","line2":"2 58135  43.0057  60.5227 0001971 266.0884  93.9743 15.27573680144005","mean_motion":15.2757368,"eccentricity":0.0001971,"inclination_deg":43.0057,"raan_deg":60.5227,"arg_perigee_deg":266.0884,"mean_anomaly_deg":93.9743,"bstar":8.7961e-5,"rev_number":14400,"period_min":94.267138721584,"perigee_km":481.71567694897,"apogee_km":484.42036396804,"semimajor_km":6861.2050204585,"source":"CELESTRAK","updated_at":"2026-05-25T13:38:18.534498Z"}}}